| time (UTC) | temp F | wind direction | speed knots | gust knots | rain 1hr in | rain 24hr in | rain mn in | humidity % | barometer mb |
| 20260903214004 | 94 | 145 | 0.0 | 1.7 | 0.00 | 0.00 | 0.00 | 59 | 1009.5 |
| 20260903213500 | 94 | 145 | 3.5 | 4.3 | 0.00 | 0.00 | 0.00 | 59 | 1009.6 |
| 20260903212955 | 95 | 149 | 1.7 | 5.2 | 0.00 | 0.00 | 0.00 | 60 | 1009.8 |
| 20260903212451 | 95 | 152 | 0.9 | 2.6 | 0.00 | 0.00 | 0.00 | 58 | 1009.6 |
| 20260903211951 | 95 | 142 | 0.9 | 4.3 | 0.00 | 0.00 | 0.00 | 58 | 1009.6 |
| 20260903211446 | 96 | 147 | 0.9 | 0.9 | 0.00 | 0.00 | 0.00 | 57 | 1009.6 |
| 20260903210943 | 95 | 146 | 0.0 | 0.9 | 0.00 | 0.00 | 0.00 | 58 | 1009.7 |
| 20260903210442 | 95 | 145 | 0.9 | 2.6 | 0.00 | 0.00 | 0.00 | 60 | 1009.6 |
| 20260903205938 | 95 | 223 | 2.6 | 4.3 | 0.00 | 0.00 | 0.00 | 59 | 1009.8 |
| 20260903205432 | 95 | 143 | 0.9 | 1.7 | 0.00 | 0.00 | 0.00 | 60 | 1009.7 |
| 20260903204926 | 95 | 145 | 0.9 | 4.3 | 0.00 | 0.00 | 0.00 | 59 | 1009.7 |
| 20260903204423 | 94 | 147 | 0.9 | 2.6 | 0.00 | 0.00 | 0.00 | 60 | 1009.7 |
| 20260903203918 | 95 | 143 | 0.9 | 1.7 | 0.00 | 0.00 | 0.00 | 58 | 1010.0 |
| 20260903203414 | 95 | 145 | 0.0 | 1.7 | 0.00 | 0.00 | 0.00 | 58 | 1009.8 |
| 20260903202913 | 94 | 143 | 0.9 | 0.9 | 0.00 | 0.00 | 0.00 | 61 | 1009.9 |
| 20260903202410 | 94 | 154 | 1.7 | 2.6 | 0.00 | 0.00 | 0.00 | 60 | 1010.0 |
| 20260903201909 | 94 | 173 | 1.7 | 4.3 | 0.00 | 0.00 | 0.00 | 60 | 1010.2 |
| 20260903201405 | 94 | 143 | 0.9 | 4.3 | 0.00 | 0.00 | 0.00 | 62 | 1010.1 |
| 20260903200904 | 94 | 142 | 0.0 | 1.7 | 0.00 | 0.00 | 0.00 | 61 | 1010.0 |
| 20260903200359 | 94 | 140 | 0.9 | 1.7 | 0.00 | 0.00 | 0.00 | 62 | 1010.2 |
| 20260903195854 | 93 | 142 | 0.0 | 1.7 | 0.00 | 0.00 | 0.00 | 63 | 1010.3 |
| 20260903195350 | 93 | 140 | 1.7 | 4.3 | 0.00 | 0.00 | 0.00 | 61 | 1010.2 |
| 20260903194844 | 92 | 141 | 0.0 | 1.7 | 0.00 | 0.00 | 0.00 | 64 | 1010.5 |
| 20260903194340 | 92 | 140 | 0.0 | 4.3 | 0.00 | 0.00 | 0.00 | 64 | 1010.3 |
| 20260903193836 | 93 | 140 | 1.7 | 2.6 | 0.00 | 0.00 | 0.00 | 63 | 1010.6 |
| 20260903193332 | 91 | 141 | 0.9 | 2.6 | 0.00 | 0.00 | 0.00 | 63 | 1010.6 |
| 20260903192827 | 91 | 140 | 0.9 | 1.7 | 0.00 | 0.00 | 0.00 | 63 | 1010.8 |
| 20260903192322 | 91 | 141 | 0.9 | 1.7 | 0.00 | 0.00 | 0.00 | 64 | 1010.5 |
| 20260903191819 | 90 | 139 | 0.9 | 2.6 | 0.00 | 0.00 | 0.00 | 65 | 1010.9 |
| 20260903191315 | 89 | 136 | 0.9 | 4.3 | 0.00 | 0.00 | 0.00 | 66 | 1010.9 |
| 20260903190814 | 91 | 137 | 2.6 | 2.6 | 0.00 | 0.00 | 0.00 | 65 | 1010.8 |
| 20260903190308 | 90 | 141 | 0.9 | 1.7 | 0.00 | 0.00 | 0.00 | 67 | 1010.9 |
| 20260903185802 | 90 | 138 | 1.7 | 5.2 | 0.00 | 0.00 | 0.00 | 67 | 1010.9 |
| 20260903185257 | 89 | 138 | 0.0 | 1.7 | 0.00 | 0.00 | 0.00 | 67 | 1010.8 |
| 20260903184754 | 88 | 135 | 0.0 | 4.3 | 0.00 | 0.00 | 0.00 | 73 | 1010.8 |
| 20260903184250 | 88 | 139 | 0.0 | 1.7 | 0.00 | 0.00 | 0.00 | 69 | 1011.2 |
| 20260903183744 | 87 | 134 | 0.9 | 2.6 | 0.00 | 0.00 | 0.00 | 70 | 1011.2 |
| 20260903183239 | 87 | 139 | 1.7 | 4.3 | 0.00 | 0.00 | 0.00 | 70 | 1011.2 |
| 20260903182737 | 86 | 131 | 2.6 | 4.3 | 0.00 | 0.00 | 0.00 | 70 | 1011.3 |
| 20260903182233 | 85 | 137 | 0.0 | 2.6 | 0.00 | 0.00 | 0.00 | 74 | 1011.4 |
| 20260903181731 | 87 | 134 | 2.6 | 4.3 | 0.00 | 0.00 | 0.00 | 71 | 1011.5 |
| 20260903181226 | 87 | 127 | 1.7 | 2.6 | 0.00 | 0.00 | 0.00 | 71 | 1011.5 |
| 20260903180722 | 86 | 138 | 1.7 | 1.7 | 0.00 | 0.00 | 0.00 | 72 | 1011.6 |
| 20260903180215 | 86 | 139 | 0.9 | 4.3 | 0.00 | 0.00 | 0.00 | 73 | 1011.8 |
| 20260903175715 | 86 | 134 | 0.9 | 1.7 | 0.00 | 0.00 | 0.00 | 73 | 1011.6 |
| 20260903175209 | 85 | 131 | 3.5 | 6.1 | 0.00 | 0.00 | 0.00 | 73 | 1011.8 |
| 20260903174709 | 84 | 134 | 2.6 | 2.6 | 0.00 | 0.00 | 0.00 | 75 | 1011.7 |
| 20260903174204 | 85 | 114 | 2.6 | 4.3 | 0.00 | 0.00 | 0.00 | 74 | 1011.7 |
| 20260903173659 | 86 | 137 | 0.9 | 2.6 | 0.00 | 0.00 | 0.00 | 73 | 1011.9 |
| 20260903173155 | 85 | 124 | 2.6 | 4.3 | 0.00 | 0.00 | 0.00 | 72 | 1011.9 |
| 20260903172649 | 85 | 142 | 1.7 | 2.6 | 0.00 | 0.00 | 0.00 | 72 | 1012.1 |
| 20260903172145 | 85 | 136 | 0.9 | 4.3 | 0.00 | 0.00 | 0.00 | 72 | 1012.1 |
| 20260903171644 | 85 | 141 | 0.9 | 1.7 | 0.00 | 0.00 | 0.00 | 73 | 1012.2 |
| 20260903171141 | 86 | 145 | 0.9 | 2.6 | 0.00 | 0.00 | 0.00 | 72 | 1011.9 |
| 20260903170639 | 85 | 141 | 1.7 | 2.6 | 0.00 | 0.00 | 0.00 | 74 | 1012.2 |
| 20260903170135 | 86 | 137 | 0.9 | 2.6 | 0.00 | 0.00 | 0.00 | 70 | 1012.2 |
| 20260903165633 | 86 | 160 | 0.9 | 4.3 | 0.00 | 0.00 | 0.00 | 73 | 1012.3 |
| 20260903165128 | 86 | 139 | 1.7 | 1.7 | 0.00 | 0.00 | 0.00 | 71 | 1012.3 |
| 20260903164622 | 85 | 135 | 1.7 | 4.3 | 0.00 | 0.00 | 0.00 | 71 | 1012.3 |
| 20260903164118 | 86 | 134 | 2.6 | 2.6 | 0.00 | 0.00 | 0.00 | 69 | 1011.9 |
| 20260903163613 | 86 | 157 | 1.7 | 1.7 | 0.00 | 0.00 | 0.00 | 70 | 1012.3 |
| 20260903163109 | 86 | 146 | 0.0 | 4.3 | 0.00 | 0.00 | 0.00 | 72 | 1012.2 |
| 20260903162605 | 86 | 142 | 0.9 | 2.6 | 0.00 | 0.00 | 0.00 | 74 | 1012.2 |
| 20260903162101 | 86 | 134 | 2.6 | 4.3 | 0.00 | 0.00 | 0.00 | 72 | 1012.1 |
| 20260903161556 | 86 | 158 | 1.7 | 6.1 | 0.00 | 0.00 | 0.00 | 73 | 1012.3 |
| 20260903161052 | 85 | 152 | 0.9 | 4.3 | 0.00 | 0.00 | 0.00 | 74 | 1012.3 |
| 20260903160550 | 85 | 150 | 1.7 | 4.3 | 0.00 | 0.00 | 0.00 | 76 | 1011.9 |
| 20260903160045 | 85 | 154 | 2.6 | 2.6 | 0.00 | 0.00 | 0.00 | 77 | 1011.9 |
| 20260903155544 | 86 | 151 | 3.5 | 5.2 | 0.00 | 0.00 | 0.00 | 77 | 1011.6 |
| 20260903155040 | 86 | 150 | 0.9 | 1.7 | 0.00 | 0.00 | 0.00 | 77 | 1011.5 |
| 20260903154536 | 87 | 152 | 1.7 | 1.7 | 0.00 | 0.00 | 0.00 | 75 | 1011.3 |
| 20260903154032 | 89 | 155 | 0.0 | 1.7 | 0.00 | 0.00 | 0.00 | 73 | 1011.0 |
| 20260903153527 | 89 | 162 | 1.7 | 1.7 | 0.00 | 0.00 | 0.00 | 69 | 1011.0 |
| 20260903153023 | 89 | 158 | 1.7 | 1.7 | 0.00 | 0.00 | 0.00 | 69 | 1010.9 |
| 20260903152518 | 89 | 150 | 0.9 | 2.6 | 0.00 | 0.00 | 0.00 | 71 | 1010.9 |
| 20260903152015 | 88 | 153 | 0.9 | 2.6 | 0.00 | 0.00 | 0.00 | 70 | 1011.0 |
| 20260903151513 | 88 | 151 | 0.9 | 1.7 | 0.00 | 0.00 | 0.00 | 71 | 1010.8 |
| 20260903151009 | 88 | 149 | 0.9 | 2.6 | 0.00 | 0.00 | 0.00 | 71 | 1011.0 |
| 20260903150503 | 88 | 153 | 0.9 | 2.6 | 0.00 | 0.00 | 0.00 | 73 | 1010.9 |
| 20260903145958 | 88 | 151 | 1.7 | 2.6 | 0.00 | 0.00 | 0.00 | 72 | 1011.0 |
| 20260903145453 | 87 | 152 | 0.9 | 1.7 | 0.00 | 0.00 | 0.00 | 72 | 1010.7 |
| 20260903144948 | 87 | 152 | 0.9 | 4.3 | 0.00 | 0.00 | 0.00 | 73 | 1011.0 |
| 20260903144447 | 87 | 151 | 3.5 | 4.3 | 0.00 | 0.00 | 0.00 | 72 | 1010.9 |
| 20260903143943 | 86 | 198 | 2.6 | 4.3 | 0.00 | 0.00 | 0.00 | 73 | 1010.8 |
| 20260903143440 | 86 | 151 | 0.9 | 2.6 | 0.00 | 0.00 | 0.00 | 76 | 1010.6 |
| 20260903142935 | 85 | 154 | 0.9 | 6.1 | 0.00 | 0.00 | 0.00 | 76 | 1010.9 |
| 20260903142431 | 85 | 149 | 0.0 | 1.7 | 0.00 | 0.00 | 0.00 | 76 | 1011.1 |
| 20260903141927 | 85 | 145 | 3.5 | 4.3 | 0.00 | 0.00 | 0.00 | 76 | 1010.9 |
| 20260903141422 | 85 | 147 | 0.9 | 2.6 | 0.00 | 0.00 | 0.00 | 76 | 1010.5 |
| 20260903140918 | 84 | 161 | 1.7 | 4.3 | 0.00 | 0.00 | 0.00 | 76 | 1010.5 |
| 20260903140413 | 84 | 150 | 1.7 | 1.7 | 0.00 | 0.00 | 0.00 | 77 | 1010.8 |
| 20260903135908 | 84 | 150 | 0.0 | 2.6 | 0.00 | 0.00 | 0.00 | 79 | 1010.7 |
| 20260903135404 | 83 | 147 | 0.9 | 1.7 | 0.00 | 0.00 | 0.00 | 79 | 1010.7 |
| 20260903134903 | 82 | 145 | 0.9 | 1.7 | 0.00 | 0.00 | 0.00 | 81 | 1010.7 |
| 20260903134357 | 82 | 146 | 0.9 | 2.6 | 0.00 | 0.00 | 0.00 | 81 | 1010.6 |
| 20260903133855 | 82 | 142 | 1.7 | 4.3 | 0.00 | 0.00 | 0.00 | 81 | 1010.5 |
| 20260903133346 | 81 | 143 | 0.9 | 1.7 | 0.00 | 0.00 | 0.00 | 82 | 1010.8 |
| 20260903132845 | 81 | 149 | 2.6 | 2.6 | 0.00 | 0.00 | 0.00 | 82 | 1010.8 |
| 20260903132342 | 80 | 141 | 0.9 | 1.7 | 0.00 | 0.00 | 0.00 | 83 | 1010.8 |
| 20260903131835 | 80 | 134 | 0.9 | 6.1 | 0.00 | 0.00 | 0.00 | 83 | 1011.0 |
| 20260903131330 | 80 | 135 | 0.9 | 2.6 | 0.00 | 0.00 | 0.00 | 85 | 1010.7 |
| 20260903130829 | 80 | 136 | 0.9 | 1.7 | 0.00 | 0.00 | 0.00 | 85 | 1010.9 |
| 20260903130325 | 80 | 138 | 1.7 | 1.7 | 0.00 | 0.00 | 0.00 | 85 | 1010.8 |
| 20260903125823 | 79 | 136 | 0.9 | 1.7 | 0.00 | 0.00 | 0.00 | 85 | 1011.1 |
| 20260903125319 | 79 | 134 | 0.9 | 1.7 | 0.00 | 0.00 | 0.00 | 85 | 1010.9 |
| 20260903124818 | 79 | 136 | 0.9 | 0.9 | 0.00 | 0.00 | 0.00 | 85 | 1011.2 |
| 20260903124313 | 79 | 136 | 0.9 | 1.7 | 0.00 | 0.00 | 0.00 | 85 | 1011.1 |
| 20260903123812 | 79 | 136 | 0.9 | 1.7 | 0.00 | 0.00 | 0.00 | 86 | 1011.1 |
| 20260903123312 | 78 | 135 | 0.0 | 1.7 | 0.00 | 0.00 | 0.00 | 86 | 1011.2 |
| 20260903122809 | 78 | 135 | 0.9 | 0.9 | 0.00 | 0.00 | 0.00 | 87 | 1011.1 |
| 20260903122306 | 78 | 135 | 0.9 | 1.7 | 0.00 | 0.00 | 0.00 | 87 | 1011.0 |
| 20260903121802 | 78 | 137 | 0.0 | 0.9 | 0.00 | 0.00 | 0.00 | 88 | 1011.1 |
| 20260903121259 | 78 | 136 | 0.0 | 0.0 | 0.00 | 0.00 | 0.00 | 87 | 1011.0 |
| 20260903120754 | 77 | 134 | 0.0 | 0.9 | 0.00 | 0.00 | 0.00 | 88 | 1011.2 |
| 20260903120248 | 77 | 136 | 0.0 | 0.0 | 0.00 | 0.00 | 0.00 | 88 | 1011.2 |
| 20260903115746 | 77 | 136 | 0.9 | 0.9 | 0.00 | 0.00 | 0.00 | 88 | 1011.1 |
| 20260903115242 | 77 | 136 | 0.0 | 0.0 | 0.00 | 0.00 | 0.00 | 88 | 1011.1 |
| 20260903114736 | 77 | 135 | 0.0 | 0.0 | 0.00 | 0.00 | 0.00 | 88 | 1011.0 |
| 20260903114232 | 78 | 136 | 0.0 | 0.9 | 0.00 | 0.00 | 0.00 | 87 | 1010.9 |
| 20260903113727 | 78 | 137 | 0.0 | 0.0 | 0.00 | 0.00 | 0.00 | 87 | 1010.9 |
| 20260903113223 | 78 | 135 | 0.9 | 0.9 | 0.00 | 0.00 | 0.00 | 87 | 1010.6 |
| 20260903112719 | 78 | 137 | 0.9 | 1.7 | 0.00 | 0.00 | 0.00 | 87 | 1010.7 |
| 20260903112215 | 78 | 136 | 0.0 | 0.0 | 0.00 | 0.00 | 0.00 | 87 | 1010.6 |
| 20260903111713 | 78 | 136 | 0.0 | 1.7 | 0.00 | 0.00 | 0.00 | 87 | 1010.9 |
| 20260903111209 | 78 | 137 | 0.0 | 0.9 | 0.00 | 0.00 | 0.00 | 88 | 1010.8 |
| 20260903110704 | 78 | 136 | 0.0 | 0.9 | 0.00 | 0.00 | 0.00 | 88 | 1010.9 |
| 20260903110200 | 77 | 135 | 0.9 | 1.7 | 0.00 | 0.00 | 0.00 | 88 | 1010.8 |
| 20260903105654 | 77 | 134 | 0.0 | 0.9 | 0.00 | 0.00 | 0.00 | 89 | 1010.7 |
| 20260903105149 | 77 | 135 | 0.0 | 0.0 | 0.00 | 0.00 | 0.00 | 89 | 1010.8 |
| 20260903104649 | 77 | 136 | 0.0 | 0.0 | 0.00 | 0.00 | 0.00 | 89 | 1010.9 |
| 20260903104144 | 77 | 136 | 0.0 | 0.9 | 0.00 | 0.00 | 0.00 | 89 | 1010.9 |
| 20260903103639 | 77 | 137 | 0.0 | 0.0 | 0.00 | 0.00 | 0.00 | 89 | 1010.9 |
| 20260903103136 | 77 | 135 | 0.0 | 0.9 | 0.00 | 0.00 | 0.00 | 89 | 1010.7 |
| 20260903102631 | 77 | 135 | 0.0 | 0.9 | 0.00 | 0.00 | 0.00 | 90 | 1010.7 |
| 20260903102130 | 77 | 134 | 0.0 | 0.9 | 0.00 | 0.00 | 0.00 | 90 | 1010.7 |
| 20260903101624 | 77 | 135 | 0.0 | 0.0 | 0.00 | 0.00 | 0.00 | 91 | 1010.6 |
| 20260903101119 | 77 | 135 | 0.0 | 0.0 | 0.00 | 0.00 | 0.00 | 91 | 1010.9 |
| 20260903100614 | 77 | 136 | 0.0 | 0.0 | 0.00 | 0.00 | 0.00 | 91 | 1010.9 |
| 20260903100114 | 77 | 136 | 0.9 | 0.9 | 0.00 | 0.00 | 0.00 | 91 | 1010.8 |
| 20260903095611 | 77 | 135 | 0.0 | 0.9 | 0.00 | 0.00 | 0.00 | 91 | 1010.8 |
| 20260903095111 | 77 | 135 | 0.9 | 0.9 | 0.00 | 0.00 | 0.00 | 91 | 1010.8 |
| 20260903094606 | 77 | 136 | 0.9 | 0.9 | 0.00 | 0.00 | 0.00 | 92 | 1010.8 |
| 20260903094101 | 77 | 136 | 0.0 | 0.9 | 0.00 | 0.00 | 0.00 | 92 | 1010.6 |
| 20260903093556 | 76 | 136 | 0.0 | 0.0 | 0.00 | 0.00 | 0.00 | 93 | 1010.7 |
| 20260903093052 | 76 | 136 | 0.0 | 0.0 | 0.00 | 0.00 | 0.00 | 94 | 1010.6 |
| 20260903092551 | 76 | 136 | 0.0 | 0.9 | 0.00 | 0.00 | 0.00 | 94 | 1010.6 |
| 20260903092046 | 76 | 137 | 0.0 | 0.0 | 0.00 | 0.00 | 0.00 | 94 | 1010.6 |
| 20260903091544 | 76 | 136 | 0.0 | 0.0 | 0.00 | 0.00 | 0.00 | 95 | 1010.5 |
| 20260903091039 | 76 | 137 | 0.0 | 0.0 | 0.00 | 0.00 | 0.00 | 95 | 1010.6 |
| 20260903090535 | 76 | 138 | 0.0 | 0.0 | 0.00 | 0.00 | 0.00 | 95 | 1010.6 |
| 20260903090034 | 76 | 138 | 0.0 | 0.0 | 0.00 | 0.00 | 0.00 | 95 | 1010.5 |
| 20260903085532 | 77 | 137 | 0.0 | 0.0 | 0.00 | 0.00 | 0.00 | 95 | 1010.5 |
| 20260903085028 | 77 | 137 | 0.0 | 0.0 | 0.00 | 0.00 | 0.00 | 95 | 1010.3 |
| 20260903084526 | 77 | 137 | 0.0 | 0.0 | 0.00 | 0.00 | 0.00 | 95 | 1010.4 |
| 20260903084021 | 77 | 137 | 0.0 | 0.0 | 0.00 | 0.00 | 0.00 | 95 | 1010.5 |
| 20260903083517 | 77 | 137 | 0.0 | 0.0 | 0.00 | 0.00 | 0.00 | 95 | 1010.3 |
| 20260903083016 | 77 | 137 | 0.0 | 0.0 | 0.00 | 0.00 | 0.00 | 95 | 1010.4 |
| 20260903082511 | 77 | 137 | 0.0 | 0.0 | 0.00 | 0.00 | 0.00 | 95 | 1010.6 |
| 20260903082006 | 77 | 138 | 0.0 | 0.0 | 0.00 | 0.00 | 0.00 | 95 | 1010.5 |
| 20260903081501 | 77 | 136 | 0.0 | 0.0 | 0.00 | 0.00 | 0.00 | 95 | 1010.5 |
| 20260903080957 | 77 | 137 | 0.0 | 0.0 | 0.00 | 0.00 | 0.00 | 95 | 1010.5 |
| 20260903080453 | 77 | 137 | 0.0 | 0.0 | 0.00 | 0.00 | 0.00 | 95 | 1010.5 |
| 20260903062722 | 78 | 136 | 0.0 | 0.0 | 0.00 | 0.00 | 0.00 | 92 | 1010.7 |
| 20260903062221 | 78 | 136 | 0.0 | 0.0 | 0.00 | 0.00 | 0.00 | 92 | 1010.7 |
| 20260903061718 | 78 | 135 | 0.0 | 0.0 | 0.00 | 0.00 | 0.00 | 92 | 1010.6 |
| 20260903061216 | 78 | 137 | 0.0 | 0.0 | 0.00 | 0.00 | 0.00 | 92 | 1010.8 |
| 20260903060711 | 78 | 137 | 0.0 | 0.0 | 0.00 | 0.00 | 0.00 | 92 | 1010.5 |
| 20260903060206 | 78 | 137 | 0.0 | 0.0 | 0.00 | 0.00 | 0.00 | 92 | 1010.7 |
| 20260903055704 | 78 | 137 | 0.0 | 0.0 | 0.00 | 0.00 | 0.00 | 92 | 1010.6 |
| 20260903055202 | 78 | 136 | 0.0 | 0.9 | 0.00 | 0.00 | 0.00 | 92 | 1010.7 |
| 20260903054657 | 78 | 137 | 0.0 | 0.0 | 0.00 | 0.00 | 0.00 | 93 | 1010.7 |
| 20260903054153 | 78 | 136 | 0.0 | 0.0 | 0.00 | 0.00 | 0.00 | 92 | 1010.9 |
| 20260903053649 | 78 | 136 | 0.0 | 0.0 | 0.00 | 0.00 | 0.00 | 92 | 1010.9 |
| 20260903053144 | 78 | 137 | 0.0 | 0.0 | 0.00 | 0.00 | 0.00 | 92 | 1010.6 |
| 20260903052640 | 78 | 137 | 0.0 | 0.0 | 0.00 | 0.00 | 0.00 | 91 | 1010.7 |
| 20260903052135 | 78 | 137 | 0.0 | 0.0 | 0.00 | 0.00 | 0.00 | 91 | 1010.5 |
| 20260903051630 | 79 | 137 | 0.0 | 0.0 | 0.00 | 0.00 | 0.00 | 90 | 1010.5 |
| 20260903051126 | 79 | 136 | 0.0 | 0.0 | 0.00 | 0.00 | 0.00 | 90 | 1010.5 |
| 20260903050626 | 79 | 137 | 0.0 | 0.0 | 0.00 | 0.00 | 0.00 | 89 | 1010.5 |
| 20260903050120 | 80 | 137 | 0.0 | 0.0 | 0.00 | 0.00 | 0.00 | 89 | 1010.4 |
| 20260903045620 | 80 | 136 | 0.0 | 0.0 | 0.00 | 0.00 | 0.00 | 88 | 1010.4 |
| 20260903045117 | 79 | 136 | 0.0 | 0.9 | 0.00 | 0.00 | 0.00 | 89 | 1010.5 |
| 20260903044612 | 79 | 136 | 0.0 | 0.0 | 0.00 | 0.00 | 0.00 | 90 | 1010.4 |
| 20260903044108 | 78 | 137 | 0.0 | 0.0 | 0.00 | 0.00 | 0.00 | 91 | 1010.5 |
| 20260903043604 | 78 | 137 | 0.0 | 0.0 | 0.00 | 0.00 | 0.00 | 92 | 1010.3 |
| 20260903043103 | 78 | 136 | 0.0 | 0.0 | 0.00 | 0.00 | 0.00 | 92 | 1010.3 |
| 20260903042557 | 78 | 136 | 0.0 | 0.0 | 0.00 | 0.00 | 0.00 | 92 | 1010.4 |
| 20260903042053 | 78 | 137 | 0.0 | 0.0 | 0.00 | 0.00 | 0.00 | 92 | 1010.4 |
| 20260903041550 | 79 | 136 | 0.0 | 0.0 | 0.00 | 0.00 | 0.00 | 91 | 1010.6 |
| 20260903041044 | 79 | 137 | 0.0 | 0.0 | 0.00 | 0.00 | 0.00 | 91 | 1010.6 |
| 20260903040543 | 79 | 137 | 0.0 | 0.0 | 0.00 | 0.00 | 0.00 | 90 | 1010.5 |
| 20260903040041 | 79 | 137 | 0.0 | 0.0 | 0.00 | 0.00 | 0.00 | 89 | 1010.5 |
| 20260903035541 | 80 | 137 | 0.0 | 0.0 | 0.00 | 0.00 | 0.00 | 89 | 1010.5 |
| 20260903035037 | 80 | 137 | 0.0 | 0.0 | 0.00 | 0.00 | 0.00 | 89 | 1010.5 |
| 20260903034531 | 81 | 137 | 0.0 | 0.0 | 0.00 | 0.00 | 0.00 | 88 | 1010.5 |
| 20260903034027 | 81 | 137 | 0.0 | 0.0 | 0.00 | 0.00 | 0.00 | 87 | 1010.4 |
| 20260903033521 | 81 | 137 | 0.0 | 0.0 | 0.00 | 0.00 | 0.00 | 86 | 1010.4 |
| 20260903033017 | 82 | 137 | 0.0 | 0.0 | 0.00 | 0.00 | 0.00 | 86 | 1010.4 |
| 20260903032512 | 82 | 137 | 0.0 | 0.0 | 0.00 | 0.00 | 0.00 | 85 | 1010.4 |
| 20260903032007 | 82 | 137 | 0.9 | 0.9 | 0.00 | 0.00 | 0.00 | 85 | 1010.2 |
| 20260903031507 | 83 | 138 | 0.0 | 0.9 | 0.00 | 0.00 | 0.00 | 83 | 1010.2 |
| 20260903031002 | 83 | 139 | 0.9 | 0.9 | 0.00 | 0.00 | 0.00 | 83 | 1010.2 |
| 20260903030458 | 83 | 141 | 0.9 | 2.6 | 0.00 | 0.00 | 0.00 | 82 | 1010.1 |
| 20260903025953 | 83 | 140 | 0.9 | 2.6 | 0.00 | 0.00 | 0.00 | 82 | 1010.4 |
| 20260903025449 | 83 | 140 | 0.0 | 0.0 | 0.00 | 0.00 | 0.00 | 83 | 1010.3 |
| 20260903024944 | 84 | 140 | 0.0 | 0.9 | 0.00 | 0.00 | 0.00 | 83 | 1010.4 |
| 20260903024443 | 84 | 140 | 0.0 | 0.9 | 0.00 | 0.00 | 0.00 | 82 | 1010.2 |
| 20260903023938 | 84 | 140 | 0.9 | 1.7 | 0.00 | 0.00 | 0.00 | 81 | 1010.4 |
| 20260903023434 | 85 | 142 | 0.9 | 2.6 | 0.00 | 0.00 | 0.00 | 80 | 1010.2 |
| 20260903022929 | 85 | 142 | 1.7 | 2.6 | 0.00 | 0.00 | 0.00 | 79 | 1010.1 |
| 20260903022428 | 85 | 140 | 0.9 | 2.6 | 0.00 | 0.00 | 0.00 | 80 | 1010.3 |
| 20260903021926 | 85 | 143 | 2.6 | 2.6 | 0.00 | 0.00 | 0.00 | 79 | 1010.1 |
| 20260903021422 | 85 | 147 | 2.6 | 5.2 | 0.00 | 0.00 | 0.00 | 79 | 1010.0 |
| 20260903020917 | 85 | 141 | 2.6 | 5.2 | 0.00 | 0.00 | 0.00 | 80 | 1010.3 |
| 20260903020412 | 85 | 147 | 2.6 | 5.2 | 0.00 | 0.00 | 0.00 | 80 | 1009.9 |
| 20260903015907 | 85 | 145 | 0.9 | 2.6 | 0.00 | 0.00 | 0.00 | 80 | 1010.0 |
| 20260903015403 | 85 | 138 | 0.9 | 1.7 | 0.00 | 0.00 | 0.00 | 80 | 1010.0 |
| 20260903014857 | 86 | 138 | 2.6 | 4.3 | 0.00 | 0.00 | 0.00 | 79 | 1010.0 |
| 20260903014351 | 86 | 138 | 1.7 | 4.3 | 0.00 | 0.00 | 0.00 | 78 | 1009.8 |
| 20260903013846 | 86 | 138 | 0.9 | 2.6 | 0.00 | 0.00 | 0.00 | 78 | 1010.0 |
| 20260903013346 | 86 | 139 | 0.9 | 1.7 | 0.00 | 0.00 | 0.00 | 78 | 1009.7 |
| 20260903012846 | 86 | 138 | 0.9 | 4.3 | 0.00 | 0.00 | 0.00 | 78 | 1009.7 |
| 20260903012340 | 86 | 138 | 2.6 | 5.2 | 0.00 | 0.00 | 0.00 | 78 | 1009.7 |
| 20260903011839 | 86 | 139 | 1.7 | 1.7 | 0.00 | 0.00 | 0.00 | 78 | 1009.5 |
| 20260903011338 | 86 | 138 | 1.7 | 5.2 | 0.00 | 0.00 | 0.00 | 78 | 1009.4 |
| 20260903010834 | 86 | 138 | 1.7 | 2.6 | 0.00 | 0.00 | 0.00 | 77 | 1009.4 |
| 20260903010329 | 86 | 140 | 2.6 | 4.3 | 0.00 | 0.00 | 0.00 | 77 | 1009.4 |
| 20260903005827 | 86 | 139 | 1.7 | 1.7 | 0.00 | 0.00 | 0.00 | 77 | 1009.4 |
| 20260903005323 | 87 | 138 | 2.6 | 2.6 | 0.00 | 0.00 | 0.00 | 76 | 1009.3 |
| 20260903004819 | 87 | 140 | 0.9 | 4.3 | 0.00 | 0.00 | 0.00 | 75 | 1009.4 |
| 20260903004314 | 87 | 138 | 1.7 | 2.6 | 0.00 | 0.00 | 0.00 | 75 | 1009.4 |
| 20260903003809 | 88 | 139 | 0.9 | 2.6 | 0.00 | 0.00 | 0.00 | 74 | 1009.4 |
| 20260903003304 | 88 | 141 | 2.6 | 4.3 | 0.00 | 0.00 | 0.00 | 73 | 1009.4 |
| 20260903002759 | 88 | 139 | 0.9 | 4.3 | 0.00 | 0.00 | 0.00 | 72 | 1009.1 |
| 20260903002258 | 88 | 141 | 3.5 | 5.2 | 0.00 | 0.00 | 0.00 | 72 | 1009.4 |
| 20260903001753 | 88 | 141 | 1.7 | 6.1 | 0.00 | 0.00 | 0.00 | 72 | 1009.5 |
| 20260903001248 | 88 | 141 | 2.6 | 6.1 | 0.00 | 0.00 | 0.00 | 72 | 1009.3 |
| 20260903000743 | 88 | 139 | 2.6 | 7.8 | 0.00 | 0.00 | 0.00 | 72 | 1009.6 |
| 20260903000237 | 88 | 140 | 3.5 | 5.2 | 0.00 | 0.00 | 0.00 | 73 | 1009.3 |
| 20260902235736 | 88 | 139 | 0.9 | 2.6 | 0.00 | 0.00 | 0.00 | 74 | 1009.6 |
| 20260902235231 | 88 | 139 | 1.7 | 1.7 | 0.00 | 0.00 | 0.00 | 73 | 1009.6 |
| 20260902234731 | 88 | 140 | 0.9 | 1.7 | 0.00 | 0.00 | 0.00 | 72 | 1009.7 |
| 20260902234230 | 89 | 139 | 0.9 | 0.9 | 0.00 | 0.00 | 0.00 | 72 | 1009.6 |
| 20260902233730 | 89 | 140 | 0.9 | 1.7 | 0.00 | 0.00 | 0.00 | 71 | 1009.6 |
| 20260902233224 | 89 | 138 | 0.9 | 1.7 | 0.00 | 0.00 | 0.00 | 71 | 1009.6 |
| 20260902232722 | 89 | 138 | 0.0 | 1.7 | 0.00 | 0.00 | 0.00 | 71 | 1009.4 |
| 20260902232217 | 90 | 138 | 0.9 | 1.7 | 0.00 | 0.00 | 0.00 | 70 | 1009.7 |
| 20260902231711 | 90 | 141 | 1.7 | 4.3 | 0.00 | 0.00 | 0.00 | 68 | 1009.6 |
| 20260902231206 | 90 | 140 | 2.6 | 4.3 | 0.00 | 0.00 | 0.00 | 68 | 1009.5 |
| 20260902230702 | 90 | 136 | 2.6 | 5.2 | 0.00 | 0.00 | 0.00 | 69 | 1009.5 |
| 20260902230200 | 90 | 139 | 1.7 | 6.1 | 0.00 | 0.00 | 0.00 | 67 | 1009.6 |
| 20260902225655 | 91 | 141 | 1.7 | 4.3 | 0.00 | 0.00 | 0.00 | 69 | 1009.7 |
| 20260902225155 | 91 | 138 | 2.6 | 2.6 | 0.00 | 0.00 | 0.00 | 67 | 1009.5 |
| 20260902224653 | 91 | 139 | 0.9 | 2.6 | 0.00 | 0.00 | 0.00 | 67 | 1009.8 |
| 20260902224149 | 91 | 137 | 1.7 | 4.3 | 0.00 | 0.00 | 0.00 | 66 | 1009.6 |
| 20260902223645 | 91 | 140 | 2.6 | 4.3 | 0.00 | 0.00 | 0.00 | 67 | 1009.8 |
| 20260902223145 | 91 | 140 | 4.3 | 5.2 | 0.00 | 0.00 | 0.00 | 65 | 1009.8 |
| 20260902222644 | 91 | 139 | 1.7 | 2.6 | 0.00 | 0.00 | 0.00 | 65 | 1009.8 |
| 20260902222142 | 92 | 140 | 1.7 | 2.6 | 0.00 | 0.00 | 0.00 | 65 | 1009.9 |
| 20260902221636 | 93 | 142 | 1.7 | 4.3 | 0.00 | 0.00 | 0.00 | 65 | 1009.8 |
| 20260902221126 | 93 | 139 | 1.7 | 4.3 | 0.00 | 0.00 | 0.00 | 63 | 1009.8 |
| 20260902220622 | 93 | 139 | 1.7 | 1.7 | 0.00 | 0.00 | 0.00 | 62 | 1009.9 |
| 20260902220122 | 94 | 142 | 3.5 | 4.3 | 0.00 | 0.00 | 0.00 | 61 | 1009.7 |
| 20260902215618 | 94 | 141 | 0.9 | 2.6 | 0.00 | 0.00 | 0.00 | 60 | 1009.7 |
| 20260902215113 | 95 | 139 | 1.7 | 6.1 | 0.00 | 0.00 | 0.00 | 59 | 1010.0 |
| 20260902214608 | 95 | 140 | 4.3 | 5.2 | 0.00 | 0.00 | 0.00 | 59 | 1009.7 |